• In Hungary
  • List of Countries
  • For 7 days
  • Water Temperature
  • Satellite Maps
  • Weather Map
  • News
  • Weather Widgets
  • user-avatar
    Login

    Hourly Weather Perehinka

    Today, 22 October, Monday

    Time Temperature Precipitation Wind Pressure Humidity
    00:00 +6°C° 0 mm 2 mps 738 mmHg 81%
    01:00 +5°C° 0 mm 2 mps 738 mmHg 83%
    02:00 +4°C° 0 mm 2 mps 738 mmHg 84%
    03:00 +4°C° 0 mm 2 mps 738 mmHg 85%
    04:00 +4°C° 0 mm 2 mps 738 mmHg 86%
    05:00 +4°C° 0 mm 2 mps 738 mmHg 86%
    06:00 +4°C° 0 mm 2 mps 738 mmHg 84%
    07:00 +4°C° 0 mm 2 mps 738 mmHg 82%
    08:00 +5°C° 0 mm 2 mps 738 mmHg 78%
    09:00 +7°C° 0 mm 1 mps 738 mmHg 71%
    10:00 +9°C° 0 mm 1 mps 738 mmHg 64%
    11:00 +10°C° 0 mm 1 mps 738 mmHg 57%
    12:00 +11°C° 0 mm 1 mps 737 mmHg 54%
    13:00 +11°C° 0 mm 1 mps 737 mmHg 52%
    14:00 +12°C° 0 mm 1 mps 737 mmHg 49%
    15:00 +11°C° 0 mm 1 mps 736 mmHg 53%
    16:00 +10°C° 0 mm 1 mps 736 mmHg 56%
    17:00 +9°C° 0 mm 1 mps 735 mmHg 60%
    18:00 +9°C° 0 mm 1 mps 735 mmHg 63%
    19:00 +8°C° 0 mm 1 mps 735 mmHg 65%
    20:00 +7°C° 0 mm 1 mps 735 mmHg 68%
    21:00 +7°C° 0 mm 1 mps 735 mmHg 69%
    22:00 +6°C° 0 mm 1 mps 735 mmHg 71%
    23:00 +5°C° 0 mm 2 mps 735 mmHg 73%

    Tomorrow, 23 October, Tuesday

    Time Temperature Precipitation Wind Pressure Humidity
    00:00 +5°C° 0 mm 2 mps 734 mmHg 75%
    01:00 +4°C° 0 mm 2 mps 734 mmHg 76%
    02:00 +4°C° 0 mm 2 mps 734 mmHg 78%
    03:00 +3°C° 0 mm 3 mps 733 mmHg 79%
    04:00 +3°C° 0 mm 3 mps 733 mmHg 79%
    05:00 +3°C° 0 mm 3 mps 732 mmHg 80%
    06:00 +3°C° 0.1 mm 4 mps 732 mmHg 80%
    07:00 +4°C° 0.1 mm 4 mps 732 mmHg 80%
    08:00 +5°C° 0.1 mm 4 mps 732 mmHg 80%
    09:00 +6°C° 0 mm 5 mps 732 mmHg 79%
    10:00 +6°C° 0 mm 5 mps 732 mmHg 78%
    11:00 +7°C° 0 mm 5 mps 732 mmHg 76%
    12:00 +8°C° 0 mm 6 mps 731 mmHg 71%
    13:00 +8°C° 0 mm 6 mps 730 mmHg 65%
    14:00 +9°C° 0 mm 6 mps 730 mmHg 60%
    15:00 +8°C° 0 mm 5 mps 729 mmHg 61%
    16:00 +8°C° 0 mm 5 mps 728 mmHg 62%
    17:00 +7°C° 0 mm 4 mps 727 mmHg 62%
    18:00 +7°C° 0.6 mm 4 mps 726 mmHg 69%
    19:00 +6°C° 0.6 mm 4 mps 725 mmHg 75%
    20:00 +6°C° 0.6 mm 4 mps 724 mmHg 82%
    21:00 +6°C° 0.3 mm 5 mps 723 mmHg 82%
    22:00 +5°C° 0.3 mm 6 mps 722 mmHg 82%
    23:00 +7°C° 0.3 mm 6 mps 721 mmHg 82%

    Day after tomorrow, 24 October, Wednesday

    Time Temperature Precipitation Wind Pressure Humidity
    00:00 +6°C° 0.2 mm 7 mps 720 mmHg 80%
    01:00 +6°C° 0.2 mm 7 mps 719 mmHg 77%
    02:00 +6°C° 0.2 mm 7 mps 718 mmHg 75%
    03:00 +6°C° 0.5 mm 8 mps 717 mmHg 76%
    04:00 +6°C° 0.5 mm 8 mps 716 mmHg 76%
    05:00 +6°C° 0.5 mm 8 mps 714 mmHg 77%
    06:00 +6°C° 2 mm 8 mps 713 mmHg 78%
    07:00 +6°C° 2 mm 8 mps 712 mmHg 80%
    08:00 +6°C° 2 mm 8 mps 712 mmHg 82%
    09:00 +5°C° 0.8 mm 10 mps 712 mmHg 75%
    10:00 +4°C° 0.8 mm 11 mps 712 mmHg 69%
    11:00 +4°C° 0.8 mm 12 mps 712 mmHg 63%
    12:00 +3°C° 0.4 mm 12 mps 712 mmHg 65%
    13:00 +1°C° 0.4 mm 13 mps 713 mmHg 67%
    14:00 +1°C° 0.4 mm 13 mps 713 mmHg 68%
    15:00 0°C° 0.4 mm 12 mps 714 mmHg 68%
    16:00 +1°C° 0.4 mm 11 mps 714 mmHg 68%
    17:00 +1°C° 0.4 mm 10 mps 715 mmHg 68%
    18:00 0°C° 0.1 mm 10 mps 715 mmHg 70%
    19:00 0°C° 0.1 mm 9 mps 715 mmHg 73%
    20:00 0°C° 0.1 mm 9 mps 715 mmHg 76%
    21:00 0°C° 0.3 mm 9 mps 715 mmHg 79%
    22:00 +1°C° 0.3 mm 8 mps 716 mmHg 82%
    23:00 +1°C° 0.3 mm 8 mps 716 mmHg 85%

    25 October, Thursday

    Time Temperature Precipitation Wind Pressure Humidity
    00:00 +1°C° 0.2 mm 8 mps 716 mmHg 86%
    01:00 +1°C° 0.2 mm 8 mps 717 mmHg 86%
    02:00 +2°C° 0.2 mm 7 mps 717 mmHg 87%
    03:00 +1°C° 0.6 mm 8 mps 717 mmHg 85%
    04:00 +2°C° 0.6 mm 9 mps 718 mmHg 84%
    05:00 +2°C° 0.6 mm 10 mps 718 mmHg 82%
    06:00 +2°C° 0.3 mm 10 mps 719 mmHg 81%
    07:00 +1°C° 0.3 mm 10 mps 719 mmHg 80%
    08:00 +1°C° 0.3 mm 10 mps 720 mmHg 80%
    09:00 +1°C° 0 mm 10 mps 720 mmHg 77%
    10:00 +2°C° 0 mm 10 mps 720 mmHg 74%
    11:00 +2°C° 0 mm 9 mps 720 mmHg 72%
    12:00 +2°C° 0 mm 9 mps 720 mmHg 69%
    13:00 +2°C° 0 mm 9 mps 720 mmHg 67%
    14:00 +4°C° 0 mm 8 mps 720 mmHg 65%
    15:00 +3°C° 0.8 mm 7 mps 719 mmHg 71%
    16:00 +3°C° 0.8 mm 6 mps 719 mmHg 76%
    17:00 +2°C° 0.8 mm 5 mps 718 mmHg 82%
    18:00 +3°C° 0.6 mm 6 mps 718 mmHg 82%
    19:00 +4°C° 0.6 mm 7 mps 718 mmHg 82%
    20:00 +4°C° 0.6 mm 8 mps 718 mmHg 82%
    21:00 +4°C° 0.1 mm 8 mps 719 mmHg 82%
    22:00 +4°C° 0.1 mm 8 mps 720 mmHg 82%
    23:00 +2°C° 0.1 mm 8 mps 720 mmHg 82%

    26 October, Friday

    Time Temperature Precipitation Wind Pressure Humidity
    00:00 +2°C° 0 mm 7 mps 721 mmHg 84%
    01:00 +2°C° 0 mm 5 mps 722 mmHg 86%
    02:00 +1°C° 0 mm 4 mps 723 mmHg 88%
    03:00 +1°C° 0.1 mm 4 mps 723 mmHg 89%
    04:00 +1°C° 0.1 mm 4 mps 724 mmHg 90%
    05:00 +1°C° 0.1 mm 4 mps 724 mmHg 90%
    06:00 +3°C° 0.1 mm 4 mps 725 mmHg 89%
    07:00 +3°C° 0.1 mm 5 mps 725 mmHg 89%
    08:00 +3°C° 0.1 mm 5 mps 726 mmHg 88%
    09:00 +4°C° 0.1 mm 6 mps 726 mmHg 82%
    10:00 +5°C° 0.1 mm 6 mps 727 mmHg 77%
    11:00 +6°C° 0.1 mm 7 mps 727 mmHg 71%
    12:00 +6°C° 0.1 mm 7 mps 727 mmHg 69%
    13:00 +7°C° 0.1 mm 6 mps 727 mmHg 67%
    14:00 +8°C° 0.1 mm 6 mps 728 mmHg 65%
    15:00 +7°C° 0 mm 5 mps 728 mmHg 69%
    16:00 +6°C° 0 mm 4 mps 728 mmHg 72%
    17:00 +7°C° 0 mm 3 mps 728 mmHg 76%
    18:00 +6°C° 0 mm 2 mps 729 mmHg 79%
    19:00 +6°C° 0 mm 2 mps 729 mmHg 81%
    20:00 +5°C° 0 mm 2 mps 729 mmHg 84%
    21:00 +5°C° 0 mm 2 mps 729 mmHg 84%
    22:00 +5°C° 0 mm 2 mps 730 mmHg 85%
    23:00 +5°C° 0 mm 2 mps 730 mmHg 85%

    27 October, Saturday

    Time Temperature Precipitation Wind Pressure Humidity
    00:00 +4°C° 0 mm 3 mps 729 mmHg 85%
    01:00 +4°C° 0 mm 3 mps 729 mmHg 84%
    02:00 +4°C° 0 mm 4 mps 729 mmHg 83%
    03:00 +4°C° 0 mm 4 mps 729 mmHg 82%
    04:00 +4°C° 0 mm 4 mps 729 mmHg 81%
    05:00 +3°C° 0 mm 5 mps 728 mmHg 80%
    06:00 +3°C° 0 mm 5 mps 728 mmHg 79%
    07:00 +3°C° 0 mm 5 mps 728 mmHg 77%
    08:00 +3°C° 0 mm 5 mps 727 mmHg 76%
    09:00 +5°C° 0 mm 5 mps 727 mmHg 74%
    10:00 +5°C° 0 mm 6 mps 727 mmHg 72%
    11:00 +7°C° 0 mm 6 mps 727 mmHg 71%
    12:00 +8°C° 0.1 mm 6 mps 727 mmHg 70%
    13:00 +9°C° 0.1 mm 5 mps 726 mmHg 69%
    14:00 +9°C° 0.1 mm 5 mps 726 mmHg 68%
    15:00 +9°C° 0 mm 5 mps 726 mmHg 69%
    16:00 +10°C° 0 mm 5 mps 726 mmHg 69%
    17:00 +11°C° 0 mm 4 mps 726 mmHg 69%
    18:00 +10°C° 0 mm 4 mps 726 mmHg 70%
    19:00 +10°C° 0 mm 4 mps 726 mmHg 72%
    20:00 +10°C° 0 mm 4 mps 726 mmHg 73%
    21:00 +10°C° 0 mm 4 mps 726 mmHg 74%
    22:00 +10°C° 0 mm 4 mps 726 mmHg 74%
    23:00 +10°C° 0 mm 4 mps 726 mmHg 75%

    28 October, Sunday

    Time Temperature Precipitation Wind Pressure Humidity
    00:00 +10°C° 0 mm 4 mps 726 mmHg 73%
    01:00 +10°C° 0 mm 4 mps 726 mmHg 72%
    02:00 +9°C° 0 mm 5 mps 725 mmHg 70%
    03:00 +9°C° 0 mm 5 mps 725 mmHg 70%
    04:00 +9°C° 0 mm 5 mps 725 mmHg 70%
    05:00 +9°C° 0 mm 5 mps 725 mmHg 69%
    06:00 +10°C° 0 mm 5 mps 725 mmHg 68%
    07:00 +10°C° 0 mm 5 mps 725 mmHg 67%
    08:00 +10°C° 0 mm 5 mps 725 mmHg 66%
    09:00 +13°C° 0 mm 6 mps 725 mmHg 60%
    10:00 +15°C° 0 mm 6 mps 725 mmHg 54%
    11:00 +17°C° 0 mm 7 mps 725 mmHg 48%
    12:00 +18°C° 0 mm 7 mps 725 mmHg 47%
    13:00 +20°C° 0 mm 6 mps 725 mmHg 46%
    14:00 +21°C° 0 mm 6 mps 725 mmHg 45%
    15:00 +19°C° 0 mm 6 mps 724 mmHg 48%
    16:00 +17°C° 0 mm 5 mps 724 mmHg 52%
    17:00 +17°C° 0 mm 4 mps 724 mmHg 56%
    18:00 +17°C° 0 mm 4 mps 725 mmHg 57%
    19:00 +17°C° 0 mm 4 mps 725 mmHg 59%
    20:00 +15°C° 0 mm 4 mps 725 mmHg 60%
    21:00 +16°C° 0 mm 3 mps 726 mmHg 64%
    22:00 +16°C° 0 mm 3 mps 726 mmHg 67%
    23:00 +14°C° 0 mm 3 mps 727 mmHg 71%
    Show more